EN

Hourly Weather A dos Cunhados

Today, 14 May, Friday

Time Temperature Precipitation Wind Pressure Humidity
00:00 +12°C° 0 mm 4 mps 756 mmHg 95%
01:00 +12°C° 0 mm 4 mps 756 mmHg 95%
02:00 +12°C° 0 mm 3 mps 756 mmHg 96%
03:00 +12°C° 0 mm 3 mps 756 mmHg 95%
04:00 +12°C° 0 mm 3 mps 756 mmHg 95%
05:00 +12°C° 0 mm 3 mps 756 mmHg 95%
06:00 +14°C° 0 mm 3 mps 756 mmHg 86%
07:00 +16°C° 0 mm 3 mps 756 mmHg 76%
08:00 +18°C° 0 mm 3 mps 757 mmHg 67%
09:00 +19°C° 0 mm 3 mps 757 mmHg 63%
10:00 +20°C° 0 mm 4 mps 757 mmHg 59%
11:00 +21°C° 0 mm 4 mps 757 mmHg 55%
12:00 +21°C° 0 mm 4 mps 757 mmHg 56%
13:00 +21°C° 0 mm 4 mps 757 mmHg 56%
14:00 +21°C° 0 mm 4 mps 756 mmHg 57%
15:00 +20°C° 0 mm 4 mps 756 mmHg 61%
16:00 +19°C° 0 mm 4 mps 756 mmHg 66%
17:00 +18°C° 0 mm 4 mps 756 mmHg 70%
18:00 +17°C° 0 mm 3 mps 756 mmHg 78%
19:00 +16°C° 0 mm 3 mps 756 mmHg 85%
20:00 +14°C° 0 mm 2 mps 756 mmHg 93%
21:00 +14°C° 0 mm 2 mps 756 mmHg 93%
22:00 +14°C° 0 mm 2 mps 756 mmHg 94%
23:00 +14°C° 0 mm 2 mps 756 mmHg 95%

Tomorrow, 15 May, Saturday

Time Temperature Precipitation Wind Pressure Humidity
00:00 +14°C° 0 mm 2 mps 756 mmHg 96%
01:00 +14°C° 0 mm 2 mps 755 mmHg 97%
02:00 +14°C° 0 mm 2 mps 755 mmHg 97%
03:00 +14°C° 0 mm 2 mps 755 mmHg 96%
04:00 +14°C° 0 mm 1 mps 755 mmHg 95%
05:00 +14°C° 0 mm 1 mps 755 mmHg 94%
06:00 +16°C° 0 mm 1 mps 755 mmHg 87%
07:00 +18°C° 0 mm 2 mps 755 mmHg 80%
08:00 +20°C° 0 mm 2 mps 756 mmHg 73%
09:00 +21°C° 0 mm 2 mps 756 mmHg 69%
10:00 +22°C° 0 mm 3 mps 756 mmHg 64%
11:00 +24°C° 0 mm 3 mps 756 mmHg 60%
12:00 +23°C° 0 mm 4 mps 755 mmHg 61%
13:00 +23°C° 0 mm 4 mps 755 mmHg 62%
14:00 +23°C° 0 mm 4 mps 755 mmHg 63%
15:00 +22°C° 0 mm 4 mps 755 mmHg 67%
16:00 +21°C° 0 mm 4 mps 755 mmHg 71%
17:00 +20°C° 0 mm 3 mps 755 mmHg 76%
18:00 +19°C° 0 mm 3 mps 755 mmHg 83%
19:00 +18°C° 0 mm 2 mps 755 mmHg 90%
20:00 +16°C° 0 mm 2 mps 755 mmHg 97%
21:00 +16°C° 0 mm 2 mps 755 mmHg 97%
22:00 +16°C° 0 mm 1 mps 755 mmHg 97%
23:00 +15°C° 0 mm 1 mps 755 mmHg 97%

Day after tomorrow, 16 May, Sunday

Time Temperature Precipitation Wind Pressure Humidity
00:00 +15°C° 0 mm 1 mps 755 mmHg 97%
01:00 +15°C° 0 mm 2 mps 754 mmHg 97%
02:00 +15°C° 0 mm 2 mps 754 mmHg 97%
03:00 +15°C° 0 mm 2 mps 754 mmHg 97%
04:00 +15°C° 0 mm 2 mps 754 mmHg 97%
05:00 +15°C° 0 mm 2 mps 754 mmHg 97%
06:00 +17°C° 0 mm 2 mps 755 mmHg 93%
07:00 +18°C° 0 mm 2 mps 755 mmHg 88%
08:00 +19°C° 0 mm 3 mps 755 mmHg 83%
09:00 +20°C° 0 mm 3 mps 755 mmHg 79%
10:00 +21°C° 0 mm 4 mps 755 mmHg 74%
11:00 +22°C° 0 mm 4 mps 755 mmHg 69%
12:00 +22°C° 0 mm 5 mps 755 mmHg 68%
13:00 +22°C° 0 mm 5 mps 755 mmHg 67%
14:00 +22°C° 0 mm 5 mps 755 mmHg 66%
15:00 +22°C° 0 mm 5 mps 755 mmHg 69%
16:00 +21°C° 0 mm 5 mps 755 mmHg 72%
17:00 +20°C° 0 mm 5 mps 755 mmHg 75%
18:00 +18°C° 0 mm 4 mps 755 mmHg 81%
19:00 +17°C° 0 mm 4 mps 755 mmHg 88%
20:00 +14°C° 0 mm 3 mps 756 mmHg 94%
21:00 +14°C° 0 mm 3 mps 756 mmHg 94%
22:00 +14°C° 0 mm 4 mps 756 mmHg 93%
23:00 +13°C° 0 mm 4 mps 756 mmHg 93%

17 May, Monday

Time Temperature Precipitation Wind Pressure Humidity
00:00 +13°C° 0 mm 4 mps 756 mmHg 92%
01:00 +13°C° 0 mm 4 mps 756 mmHg 92%
02:00 +13°C° 0 mm 4 mps 756 mmHg 91%
03:00 +13°C° 0 mm 4 mps 756 mmHg 90%
04:00 +13°C° 0 mm 4 mps 756 mmHg 89%
05:00 +13°C° 0 mm 4 mps 757 mmHg 88%
06:00 +15°C° 0 mm 4 mps 757 mmHg 79%
07:00 +18°C° 0 mm 4 mps 757 mmHg 70%
08:00 +19°C° 0 mm 4 mps 757 mmHg 61%
09:00 +20°C° 0 mm 5 mps 757 mmHg 59%
10:00 +21°C° 0 mm 5 mps 758 mmHg 57%
11:00 +21°C° 0 mm 5 mps 758 mmHg 56%
12:00 +21°C° 0 mm 5 mps 758 mmHg 56%
13:00 +21°C° 0 mm 6 mps 758 mmHg 56%
14:00 +22°C° 0 mm 6 mps 757 mmHg 57%
15:00 +20°C° 0 mm 6 mps 758 mmHg 59%
16:00 +19°C° 0 mm 6 mps 758 mmHg 61%
17:00 +17°C° 0 mm 6 mps 758 mmHg 63%
18:00 +16°C° 0 mm 6 mps 758 mmHg 67%
19:00 +14°C° 0 mm 5 mps 759 mmHg 71%
20:00 +13°C° 0 mm 4 mps 759 mmHg 74%
21:00 +13°C° 0 mm 4 mps 759 mmHg 75%
22:00 +12°C° 0 mm 4 mps 759 mmHg 75%
23:00 +12°C° 0 mm 4 mps 759 mmHg 75%

18 May, Tuesday

Time Temperature Precipitation Wind Pressure Humidity
00:00 +12°C° 0 mm 4 mps 759 mmHg 76%
01:00 +12°C° 0 mm 4 mps 758 mmHg 77%
02:00 +12°C° 0 mm 4 mps 758 mmHg 77%
03:00 +12°C° 0 mm 4 mps 758 mmHg 78%
04:00 +12°C° 0 mm 4 mps 759 mmHg 78%
05:00 +12°C° 0 mm 4 mps 759 mmHg 79%
06:00 +14°C° 0 mm 4 mps 759 mmHg 68%
07:00 +17°C° 0 mm 4 mps 759 mmHg 57%
08:00 +19°C° 0 mm 5 mps 759 mmHg 46%
09:00 +20°C° 0 mm 5 mps 759 mmHg 43%
10:00 +22°C° 0 mm 5 mps 759 mmHg 40%
11:00 +23°C° 0 mm 5 mps 759 mmHg 37%
12:00 +23°C° 0 mm 5 mps 759 mmHg 37%
13:00 +23°C° 0 mm 5 mps 759 mmHg 37%
14:00 +22°C° 0 mm 6 mps 759 mmHg 38%
15:00 +21°C° 0 mm 6 mps 759 mmHg 41%
16:00 +20°C° 0 mm 6 mps 759 mmHg 45%
17:00 +19°C° 0 mm 6 mps 759 mmHg 49%
18:00 +17°C° 0 mm 6 mps 759 mmHg 55%
19:00 +15°C° 0 mm 5 mps 759 mmHg 61%
20:00 +14°C° 0 mm 5 mps 759 mmHg 67%
21:00 +14°C° 0 mm 5 mps 759 mmHg 69%
22:00 +13°C° 0 mm 5 mps 759 mmHg 71%
23:00 +13°C° 0 mm 4 mps 759 mmHg 72%

19 May, Wednesday

Time Temperature Precipitation Wind Pressure Humidity
00:00 +13°C° 0 mm 4 mps 758 mmHg 73%
01:00 +13°C° 0 mm 4 mps 758 mmHg 74%
02:00 +13°C° 0 mm 4 mps 758 mmHg 75%
03:00 +13°C° 0 mm 4 mps 758 mmHg 74%
04:00 +13°C° 0 mm 4 mps 758 mmHg 73%
05:00 +13°C° 0 mm 4 mps 758 mmHg 71%
06:00 +15°C° 0 mm 4 mps 758 mmHg 65%
07:00 +19°C° 0 mm 4 mps 758 mmHg 58%
08:00 +22°C° 0 mm 5 mps 758 mmHg 51%
09:00 +23°C° 0 mm 5 mps 758 mmHg 48%
10:00 +26°C° 0 mm 5 mps 758 mmHg 46%
11:00 +27°C° 0 mm 5 mps 758 mmHg 43%
12:00 +27°C° 0 mm 6 mps 758 mmHg 45%
13:00 +27°C° 0 mm 6 mps 758 mmHg 46%
14:00 +27°C° 0 mm 6 mps 757 mmHg 48%
15:00 +24°C° 0 mm 7 mps 757 mmHg 54%
16:00 +23°C° 0 mm 7 mps 757 mmHg 59%
17:00 +22°C° 0 mm 7 mps 757 mmHg 64%
18:00 +20°C° 0 mm 6 mps 757 mmHg 73%
19:00 +17°C° 0 mm 6 mps 757 mmHg 81%
20:00 +16°C° 0 mm 5 mps 758 mmHg 89%
21:00 +15°C° 0 mm 5 mps 758 mmHg 91%
22:00 +15°C° 0 mm 5 mps 758 mmHg 92%
23:00 +15°C° 0 mm 4 mps 758 mmHg 94%
Show more